レモン彗星

C/2023 H2 ( Lemmon )

English version
Home page
Updated on December 1, 2023

---------------------------------------------------------------------

・ プロフィール

発見日 2023年4月23日
発見光度 20.7等
発見者 Mt. Lemmon Survey

・ 写真集

・ 軌道要素

Epoch 2023 Sept. 13.0 TT = JDT 2460200.5
T 2023 Oct. 29.18843 TT                                 Rudenko
q   0.8944091            (2000.0)            P               Q
z  +0.0040752      Peri.  150.64856     +0.57677022     +0.60274465
 +/-0.0000071      Node   217.04388     +0.44788983     +0.33115658
e   0.9963551      Incl.  113.75334     +0.68317700     -0.72597121
>From 151 observations 2023 Mar. 26-Sept. 28, mean residual 0".7.

・ 星図

・ 光度変化

        m1 =  9.5 + 5 logΔ + 20.0 log r  [   ,-63]  (              〜2023年 8月27日)
        m1 = 11.0 + 5 logΔ + 10.0 log r  [-63,   ]  (2023年 8月27日〜              )

---------------------------------------------------------------------

軌道要素はM.P.E.C. 2023-S260に掲載されたものです。
星図はステラナビゲータ Ver.11 (アストロアーツ) で作成したものです。
光度グラフはComet for Windowsで作成したものです。

---------------------------------------------------------------------

Copyright(C) Seiichi Yoshida (comet@aerith.net). All rights reserved.